Location: Barrialito
(10.3588°N, 66.9747°W)
Time: 20:18:35
(UTC+00:00)

Meteor 1-11 Rocket - Pass Details

Date: 08 December 2021
Orbit: 832 x 915 km, 81.2° (Epoch: 16 January)

Event Time Altitude Azimuth Distance (km) Brightness Sun altitude
Rises 22:52:26 0° 4° (N) 3,452 6.6 -11.4°
Reaches altitude 10° 22:54:56 10° 9° (N) 2,527 5.9 -11.9°
Maximum altitude 23:00:30 50° 84° (E) 1,115 4.0 -13.2°
Drops below altitude 10° 23:06:10 10° 159° (SSE) 2,577 6.2 -14.5°
Sets 23:08:43 0° 164° (SSE) 3,526 7.0 -15.1°
